Regional Weather Roundup
Issued by NWS Bismarck, ND

Home | Current Version | Previous Version | Text Only | Print | Product List | Glossary On
Versions: 1 2 3 4 5 6 7 8 9 10 11 12 13 14 15 16 17 18 19 20 21 22 23 24 25 26 27 28 29 30 31 32 33 34 35 36 37 38 39 40 41 42 43 44 45 46 47 48 49 50
096
ASUS43 KBIS 260410
RWRBIS

NWR BROADCAST TEXT
NATIONAL WEATHER SERVICE BISMARCK ND
1100 PM CDT THU AUG 25 2016

NOTE: "FAIR" INDICATES FEW OR NO CLOUDS BELOW 12,000 FEET WITH NO
SIGNIFICANT WEATHER AND/OR OBSTRUCTIONS TO VISIBILITY.


CITY           SKY/WX    TMP DP  RH WIND       PRES   REMARKS
WILLISTON      CLOUDY    60  40  47 W5        30.09S
MINOT          CLEAR     57  42  57 S5        30.06S
MINOT AFB      CLEAR     54  39  57 S8        30.05S
BISMARCK       CLEAR     54  47  77 CALM      30.13R
DICKINSON      CLEAR     52  40  63 SW5       30.13S
GARRISON         N/A     51  44  77 CALM      30.09S
HETTINGER ARPT CLEAR     51  40  65 CALM      30.18S
JAMESTOWN      CLEAR     56  50  80 SW7       30.10R
CARRINGTON     FAIR      55  50  82 SW7       30.11S
HAZEN          MOCLDY    54  43  66 CALM      30.12S
LINTON         FAIR      54  48  82 S9        30.17R
MANDAN         FAIR      55  46  71 SW9       30.14R
OAKES            N/A    N/A N/A N/A MISG        N/A
STANLEY        MOCLDY    57  43  58 CALM      30.11S
WATFORD CITY   FAIR      54  39  58 SW6       30.11S
$$

CITY           SKY/WX    TMP DP  RH WIND       PRES   REMARKS
GRAND FORKS    CLEAR     52  49  89 SW7       30.04S
GRAND FORKS AF CLEAR     53  50  90 W5        30.05S
DEVILS LAKE    CLEAR     55  50  83 CALM      30.07S
FARGO          MOCLDY    58  50  75 SW7       30.08R
CAVALIER       FAIR      50  48  93 CALM      30.04S
GRAFTON        FAIR      54  52  94 CALM      30.05S
GWINNER        FAIR      54  52  94 SW7       30.12S
LANGDON        FAIR      48  46  93 SW8       30.07R
ROLLA          FAIR      50  48  93 SW6       30.07S
$$

CITY           SKY/WX    TMP DP  RH WIND       PRES   REMARKS
ABERDEEN       CLOUDY    55  51  86 SW5       30.15R
MOBRIDGE       CLEAR     56  48  74 SE5       30.14S
BUFFALO          N/A     58  39  49 SE5       30.12F
RAPID CITY     CLEAR     50  44  80 CALM      30.19F
GLASGOW        CLOUDY    57  43  59 N5        30.10S
SIDNEY         CLEAR     52  42  69 S3        30.10S
WOLF POINT     CLOUDY    62  46  55 S5        30.10S
GLENDIVE       CLEAR     53  39  59 W6        30.14S
MILES CITY     CLEAR     60  36  40 S7        30.14F
BAKER          MOCLDY    54  39  57 SW5       30.18S
$$

CITY           SKY/WX    TMP DP  RH WIND       PRES   REMARKS
BILLINGS       CLOUDY    61  39  44 E7        30.15S
GREAT FALLS    PTCLDY    58  38  47 N10       30.17R
REGINA         MOCLDY    55  52  88 SW6       30.05F
ESTEVAN        MOCLDY    55  45  67 NW5       30.06R
$$





USA.gov is the U.S. government's official web portal to all federal, state and local government web resources and services.